• In Lithuania
  • List of Countries
  • For 7 days
  • Water Temperature
  • Satellite Maps
  • Weather Map
  • Weather Widgets
  • user-avatar
    Login

    Hourly Weather Igls

    Today, 19 January, Friday

    Time Temperature Precipitation Wind Pressure Humidity
    00:00 +3°C° 0.4 mm 2 mps 676 mmHg 88%
    01:00 +3°C° 0.4 mm 2 mps 676 mmHg 89%
    02:00 +3°C° 0.5 mm 2 mps 676 mmHg 89%
    03:00 +3°C° 0.5 mm 2 mps 675 mmHg 90%
    04:00 +3°C° 0.5 mm 2 mps 675 mmHg 90%
    05:00 +3°C° 1 mm 2 mps 675 mmHg 91%
    06:00 +2°C° 1 mm 2 mps 676 mmHg 93%
    07:00 +2°C° 1 mm 2 mps 676 mmHg 94%
    08:00 +2°C° 1.2 mm 2 mps 676 mmHg 94%
    09:00 +2°C° 1.2 mm 2 mps 677 mmHg 95%
    10:00 +2°C° 1.2 mm 2 mps 677 mmHg 95%
    11:00 +2°C° 0.7 mm 2 mps 677 mmHg 94%
    12:00 +1°C° 0.7 mm 3 mps 678 mmHg 93%
    13:00 0°C° 0.7 mm 3 mps 678 mmHg 92%
    14:00 0°C° 0.3 mm 3 mps 678 mmHg 92%
    15:00 +1°C° 0.3 mm 2 mps 678 mmHg 92%
    16:00 -1°C° 0.3 mm 2 mps 678 mmHg 92%
    17:00 -2°C° 0.2 mm 2 mps 679 mmHg 92%
    18:00 -3°C° 0.2 mm 2 mps 679 mmHg 93%
    19:00 -4°C° 0.2 mm 2 mps 680 mmHg 93%
    20:00 -4°C° 0.1 mm 2 mps 680 mmHg 92%
    21:00 -5°C° 0.1 mm 2 mps 680 mmHg 91%
    22:00 -4°C° 0.1 mm 1 mps 680 mmHg 90%
    23:00 -4°C° 0.1 mm 1 mps 680 mmHg 89%

    Tomorrow, 20 January, Saturday

    Time Temperature Precipitation Wind Pressure Humidity
    00:00 -4°C° 0.1 mm 1 mps 679 mmHg 87%
    01:00 -4°C° 0.1 mm 1 mps 679 mmHg 86%
    02:00 -4°C° 0.5 mm 1 mps 680 mmHg 88%
    03:00 -5°C° 0.5 mm 2 mps 680 mmHg 91%
    04:00 -4°C° 0.5 mm 2 mps 680 mmHg 93%
    05:00 -4°C° 0.3 mm 2 mps 680 mmHg 92%
    06:00 -5°C° 0.3 mm 2 mps 680 mmHg 92%
    07:00 -5°C° 0.3 mm 2 mps 679 mmHg 91%
    08:00 -4°C° 0.2 mm 2 mps 679 mmHg 89%
    09:00 -3°C° 0.2 mm 2 mps 679 mmHg 88%
    10:00 -3°C° 0.2 mm 2 mps 679 mmHg 87%
    11:00 -2°C° 0.1 mm 2 mps 679 mmHg 84%
    12:00 -1°C° 0.1 mm 2 mps 678 mmHg 80%
    13:00 +1°C° 0.1 mm 2 mps 677 mmHg 77%
    14:00 +1°C° 0.1 mm 2 mps 676 mmHg 81%
    15:00 -1°C° 0.1 mm 2 mps 675 mmHg 84%
    16:00 -1°C° 0.1 mm 2 mps 675 mmHg 87%
    17:00 -2°C° 0.7 mm 2 mps 674 mmHg 90%
    18:00 -2°C° 0.7 mm 2 mps 674 mmHg 92%
    19:00 -3°C° 0.7 mm 2 mps 673 mmHg 94%
    20:00 -3°C° 1.1 mm 2 mps 673 mmHg 95%
    21:00 -3°C° 1.1 mm 2 mps 674 mmHg 95%
    22:00 -3°C° 1.1 mm 2 mps 674 mmHg 95%
    23:00 -2°C° 1.1 mm 2 mps 674 mmHg 95%

    Day after tomorrow, 21 January, Sunday

    Time Temperature Precipitation Wind Pressure Humidity
    00:00 -2°C° 1.1 mm 2 mps 675 mmHg 96%
    01:00 -1°C° 1.1 mm 3 mps 675 mmHg 96%
    02:00 -2°C° 1 mm 3 mps 676 mmHg 96%
    03:00 -3°C° 1 mm 4 mps 676 mmHg 96%
    04:00 -3°C° 1 mm 4 mps 677 mmHg 96%
    05:00 -4°C° 0.6 mm 4 mps 677 mmHg 96%
    06:00 -4°C° 0.6 mm 3 mps 678 mmHg 96%
    07:00 -5°C° 0.6 mm 3 mps 679 mmHg 96%
    08:00 -5°C° 0.4 mm 3 mps 679 mmHg 95%
    09:00 -4°C° 0.4 mm 2 mps 680 mmHg 95%
    10:00 -3°C° 0.4 mm 2 mps 681 mmHg 94%
    11:00 -3°C° 0.3 mm 2 mps 681 mmHg 92%
    12:00 -2°C° 0.3 mm 2 mps 681 mmHg 90%
    13:00 -2°C° 0.3 mm 2 mps 681 mmHg 89%
    14:00 -2°C° 0.6 mm 2 mps 681 mmHg 90%
    15:00 0°C° 0.6 mm 1 mps 681 mmHg 92%
    16:00 0°C° 0.6 mm 1 mps 681 mmHg 93%
    17:00 0°C° 0.8 mm 1 mps 681 mmHg 94%
    18:00 0°C° 0.8 mm 1 mps 681 mmHg 94%
    19:00 0°C° 0.8 mm 1 mps 681 mmHg 94%
    20:00 +1°C° 1.7 mm 1 mps 681 mmHg 95%
    21:00 +1°C° 1.7 mm 1 mps 681 mmHg 95%
    22:00 +2°C° 1.7 mm 1 mps 681 mmHg 96%
    23:00 +2°C° 2.6 mm 1 mps 681 mmHg 96%

    22 January, Monday

    Time Temperature Precipitation Wind Pressure Humidity
    00:00 +3°C° 2.6 mm 1 mps 681 mmHg 96%
    01:00 +2°C° 2.6 mm 2 mps 681 mmHg 97%
    02:00 +3°C° 3.4 mm 2 mps 681 mmHg 97%
    03:00 +3°C° 3.4 mm 2 mps 681 mmHg 97%
    04:00 +3°C° 3.4 mm 2 mps 681 mmHg 97%
    05:00 +4°C° 3.1 mm 2 mps 681 mmHg 97%
    06:00 +4°C° 3.1 mm 2 mps 681 mmHg 97%
    07:00 +4°C° 3.1 mm 2 mps 681 mmHg 97%
    08:00 +5°C° 3.1 mm 2 mps 681 mmHg 97%
    09:00 +5°C° 3.1 mm 2 mps 681 mmHg 97%
    10:00 +6°C° 3.1 mm 2 mps 682 mmHg 97%
    11:00 +6°C° 1.9 mm 2 mps 682 mmHg 98%
    12:00 +6°C° 1.9 mm 2 mps 681 mmHg 99%
    13:00 +7°C° 1.9 mm 2 mps 681 mmHg 99%
    14:00 +7°C° 1.8 mm 2 mps 681 mmHg 99%
    15:00 +7°C° 1.8 mm 2 mps 681 mmHg 99%
    16:00 +7°C° 1.8 mm 2 mps 681 mmHg 98%
    17:00 +6°C° 0.2 mm 2 mps 682 mmHg 97%
    18:00 +6°C° 0.2 mm 2 mps 682 mmHg 97%
    19:00 +6°C° 0.2 mm 2 mps 682 mmHg 96%
    20:00 +6°C° 0.6 mm 2 mps 682 mmHg 96%
    21:00 +6°C° 0.6 mm 2 mps 682 mmHg 96%
    22:00 +6°C° 0.6 mm 2 mps 682 mmHg 95%
    23:00 +6°C° 0.5 mm 2 mps 683 mmHg 95%

    23 January, Tuesday

    Time Temperature Precipitation Wind Pressure Humidity
    00:00 +6°C° 0.5 mm 2 mps 683 mmHg 95%
    01:00 +6°C° 0.5 mm 2 mps 683 mmHg 95%
    02:00 +5°C° 1.1 mm 2 mps 684 mmHg 96%
    03:00 +5°C° 1.1 mm 2 mps 684 mmHg 96%
    04:00 +5°C° 1.1 mm 2 mps 685 mmHg 97%
    05:00 +5°C° 1.3 mm 2 mps 685 mmHg 97%
    06:00 +5°C° 1.3 mm 2 mps 686 mmHg 97%
    07:00 +5°C° 1.3 mm 2 mps 686 mmHg 97%
    08:00 +5°C° 0.8 mm 2 mps 687 mmHg 97%
    09:00 +5°C° 0.8 mm 2 mps 687 mmHg 97%
    10:00 +5°C° 0.8 mm 2 mps 688 mmHg 97%
    11:00 +5°C° 0 mm 2 mps 688 mmHg 98%
    12:00 +6°C° 0 mm 2 mps 688 mmHg 98%
    13:00 +6°C° 0 mm 2 mps 688 mmHg 98%
    14:00 +5°C° 0 mm 2 mps 688 mmHg 98%
    15:00 +5°C° 0 mm 2 mps 689 mmHg 97%
    16:00 +5°C° 0 mm 2 mps 689 mmHg 96%
    17:00 +4°C° 0 mm 2 mps 689 mmHg 91%
    18:00 +3°C° 0 mm 2 mps 690 mmHg 87%
    19:00 +1°C° 0 mm 2 mps 690 mmHg 82%
    20:00 +1°C° 0 mm 2 mps 690 mmHg 80%
    21:00 +1°C° 0 mm 2 mps 690 mmHg 77%
    22:00 +1°C° 0 mm 2 mps 691 mmHg 74%
    23:00 +1°C° 0 mm 2 mps 691 mmHg 72%

    24 January, Wednesday

    Time Temperature Precipitation Wind Pressure Humidity
    00:00 +1°C° 0 mm 2 mps 691 mmHg 70%
    01:00 +1°C° 0 mm 2 mps 691 mmHg 68%
    02:00 +1°C° 0 mm 2 mps 691 mmHg 66%
    03:00 +1°C° 0 mm 2 mps 690 mmHg 65%
    04:00 +1°C° 0 mm 2 mps 690 mmHg 63%
    05:00 +2°C° 0 mm 1 mps 690 mmHg 63%
    06:00 +2°C° 0 mm 1 mps 690 mmHg 63%
    07:00 +2°C° 0 mm 1 mps 690 mmHg 63%
    08:00 +3°C° 0 mm 1 mps 691 mmHg 66%
    09:00 +5°C° 0 mm 1 mps 691 mmHg 70%
    10:00 +7°C° 0 mm 1 mps 691 mmHg 74%
    11:00 +7°C° 0 mm 1 mps 691 mmHg 81%
    12:00 +8°C° 0 mm 1 mps 690 mmHg 88%
    13:00 +8°C° 0 mm 1 mps 690 mmHg 96%
    14:00 +8°C° 0 mm 1 mps 690 mmHg 93%
    15:00 +8°C° 0 mm 1 mps 689 mmHg 90%
    16:00 +6°C° 0 mm 2 mps 689 mmHg 87%
    17:00 +5°C° 0 mm 2 mps 689 mmHg 82%
    18:00 +4°C° 0 mm 2 mps 689 mmHg 78%
    19:00 +3°C° 0 mm 2 mps 689 mmHg 73%
    20:00 +3°C° 0 mm 2 mps 689 mmHg 72%
    21:00 +3°C° 0 mm 2 mps 689 mmHg 70%
    22:00 +2°C° 0 mm 2 mps 689 mmHg 69%
    23:00 +2°C° 0 mm 2 mps 689 mmHg 69%
    Show more